Chicago Midway, IL

12:10 PM CST on November 18, 2017 (GMT -0600)
Chicago-Midway

Weather History for KMDW - July, 2013

Change the Weather History Date:

Tuesday, July 30, 2013

  Actual Average Record
Temperature  
Mean Temperature 68 °F 76 °F  
Max Temperature 74 °F 84 °F 104 °F (1999)
Min Temperature 61 °F 68 °F 51 °F (1936)
Degree Days  
Heating Degree Days 0 0  
Month to date heating degree days 4 0  
Since 1 June heating degree days 40 31  
Since 1 July heating degree days 4 0  
Cooling Degree Days 3 11  
Month to date cooling degree days 306 328  
Year to date cooling degree days 593 612  
Since 1 June cooling degree days 487 538  
Growing Degree Days 17 (Base 50)    
Moisture  
Dew Point 56 °F    
Average Humidity 63    
Maximum Humidity 78    
Minimum Humidity 45    
Precipitation  
Precipitation T in 0.14 in 2.43 in (1979)
Month to date precipitation 0.95 3.86  
Year to date precipitation 21.82 22.41  
Sea Level Pressure  
Sea Level Pressure 30.13 in    
Wind  
Wind Speed 6 mph (SSE)    
Max Wind Speed 13 mph    
Max Gust Speed 21 mph    
Visibility 10 miles    
Events Rain    
T = Trace of Precipitation, MM = Missing Value Source: NWS Daily Summary

Daily Weather History Graph

Daily Weather History Graph

Search for Another Location

Airport or City:

Trip Planner

Search our weather history database for the weather conditions in past years. The results will help you decide how hot, cold, wet, or windy it might be!

Date:

Astronomy

Jul. 30, 2013 Rise Set
Actual Time 5:43 AM CDT 8:10 PM CDT
Civil Twilight 5:11 AM CDT 8:42 PM CDT
Nautical Twilight 4:32 AM CDT 9:21 PM CDT
Astronomical Twilight 3:48 AM CDT 10:05 PM CDT
Moon 12:01 AM CDT (7/30) 2:30 PM CDT (7/30)
Length of Visible Light 15h 30m
Length of Day
14h 27m
Last Quarter, 41% of the Moon is Illuminated
Jul 30
Last Quarter
Aug 6
New
Aug 14
First Quarter
Aug 20
Full
Aug 28
Last Quarter

Hourly Weather History & Observations

Time (CDT) Temp. Dew Point Humidity Pressure Visibility Wind Dir Wind Speed Gust Speed Precip Events Conditions
12:51 AM 64.0 °F 57.0 °F 78% 30.17 in 10.0 mi East 4.6 mph - N/A   Mostly Cloudy
1:51 AM 64.0 °F 55.9 °F 75% 30.16 in 10.0 mi SE 3.5 mph - N/A   Mostly Cloudy
2:51 AM 63.0 °F 55.9 °F 78% 30.17 in 10.0 mi Calm Calm - N/A   Scattered Clouds
3:51 AM 62.1 °F 54.0 °F 75% 30.17 in 10.0 mi SSE 3.5 mph - N/A   Scattered Clouds
4:51 AM 61.0 °F 53.1 °F 75% 30.17 in 10.0 mi SE 3.5 mph - N/A   Scattered Clouds
5:51 AM 62.1 °F 51.1 °F 67% 30.17 in 10.0 mi Calm Calm - N/A   Scattered Clouds
6:51 AM 64.0 °F 52.0 °F 65% 30.17 in 10.0 mi Calm Calm - N/A   Scattered Clouds
7:51 AM 68.0 °F 54.0 °F 61% 30.17 in 10.0 mi ESE 4.6 mph - N/A   Mostly Cloudy
8:51 AM 70.0 °F 54.0 °F 57% 30.17 in 10.0 mi Variable 4.6 mph - N/A   Mostly Cloudy
9:51 AM 72.0 °F 55.0 °F 55% 30.16 in 10.0 mi South 8.1 mph - N/A   Mostly Cloudy
10:51 AM 73.0 °F 54.0 °F 51% 30.16 in 10.0 mi South 5.8 mph - N/A   Overcast
11:51 AM 72.0 °F 55.0 °F 55% 30.16 in 10.0 mi South 8.1 mph 18.4 mph 0.00 in Rain Light Rain
12:51 PM 71.1 °F 57.0 °F 61% 30.15 in 10.0 mi South 8.1 mph - 0.00 in Rain Light Rain
1:51 PM 71.1 °F 57.0 °F 61% 30.13 in 10.0 mi SE 10.4 mph 16.1 mph 0.00 in   Overcast
2:32 PM 71.6 °F 57.2 °F 60% 30.14 in 10.0 mi SE 9.2 mph - N/A   Overcast
2:51 PM 72.0 °F 57.0 °F 59% 30.12 in 10.0 mi SE 9.2 mph - N/A   Overcast
3:10 PM 71.6 °F 57.2 °F 60% 30.13 in 10.0 mi SE 9.2 mph - N/A   Overcast
3:51 PM 72.0 °F 59.0 °F 64% 30.11 in 10.0 mi South 8.1 mph - N/A   Overcast
4:51 PM 73.0 °F 59.0 °F 61% 30.10 in 10.0 mi South 10.4 mph - N/A   Overcast
5:51 PM 72.0 °F 59.0 °F 64% 30.09 in 10.0 mi SSE 9.2 mph - N/A   Overcast
6:51 PM 72.0 °F 60.1 °F 66% 30.09 in 10.0 mi SSE 8.1 mph - N/A   Overcast
7:51 PM 71.1 °F 59.0 °F 66% 30.08 in 10.0 mi SSE 9.2 mph - N/A   Overcast
8:51 PM 71.1 °F 59.0 °F 66% 30.07 in 10.0 mi SE 8.1 mph - N/A   Overcast
9:51 PM 71.1 °F 59.0 °F 66% 30.08 in 10.0 mi SSE 5.8 mph - N/A   Overcast
10:51 PM 70.0 °F 59.0 °F 68% 30.07 in 10.0 mi SE 5.8 mph - N/A   Overcast
11:51 PM 70.0 °F 57.9 °F 65% 30.06 in 10.0 mi South 4.6 mph - N/A   Overcast